Terminal Aerodrome Forecast
Issued by NWS Pittsburgh, PA

Current Version | Previous Version | Text Only | Print | Product List | Glossary Off
Versions: 1 2 3 4 5 6 7 8 9 10 11 12 13 14 15 16 17 18 19 20 21 22 23 24 25 26 27 28 29 30

000
FTUS41 KPBZ 011100
TAFPIT
TAF
KPIT 011129Z 0112/0218 35005KT 2SM BR OVC002
      TEMPO 0112/0114 1/2SM FG VV001
     FM011400 10005KT 5SM BR BKN020
     FM011700 12005KT P6SM BKN035
     FM012300 14005KT P6SM BKN250=

USA.gov is the U.S. government's official web portal to all federal, state and local government web resources and services.